Location: Champseau
(45.8333°N, 1.7667°E)
Time: 11:24:44
(UTC+00:00)

ISS - Visible Passes

Search period start: 27 September 2021 00:00
Search period end: 07 October 2021 00:00
Orbit: 417 x 423 km, 51.6° (Epoch: 27 September)

Date Brightness Start Highest point End Pass type
(mag) Time Alt. Az. Time Alt. Az. Time Alt. Az.
27 Sep -2.3 18:15:16 10° WNW 18:18:17 29° N 18:21:17 10° ENE visible
27 Sep -2.3 19:52:22 10° NW 19:54:43 35° NNW 19:54:43 35° NNW visible
28 Sep -2.7 19:05:03 10° NW 19:08:12 36° NNE 19:09:11 29° NE visible
28 Sep -0.3 20:41:51 10° WNW 20:42:09 12° WNW 20:42:09 12° WNW visible
29 Sep -2.5 18:17:41 10° WNW 18:20:45 31° N 18:23:39 11° ENE visible
29 Sep -2.2 19:54:30 10° WNW 19:56:37 36° WNW 19:56:37 36° WNW visible
30 Sep -3.6 19:07:12 10° WNW 19:10:32 59° NNE 19:11:09 49° ENE visible
01 Oct -3.1 18:19:53 10° NW 18:23:09 44° NNE 18:25:42 15° E visible
01 Oct -1.7 19:56:47 10° WNW 19:58:40 27° W 19:58:40 27° W visible
02 Oct -3.5 19:09:22 10° WNW 19:12:42 64° SSW 19:13:18 51° SSE visible
03 Oct -3.8 18:22:01 10° WNW 18:25:23 85° NNE 18:27:59 16° ESE visible
03 Oct -1.0 19:59:38 10° W 20:00:58 15° WSW 20:00:58 15° WSW visible
04 Oct -1.9 19:11:50 10° W 19:14:39 25° SW 19:15:46 21° S visible
05 Oct -2.6 18:24:16 10° WNW 18:27:27 39° SW 18:30:36 10° SSE visible
